Regional Weather Roundup
Issued by NWS

Home | Current Version | Previous Version | Graphics & Text | Print | Product List | Glossary On
Versions: 1 2 3 4 5 6 7 8 9 10 11 12 13 14 15 16 17 18 19 20 21 22 23 24 25 26
000
ASUS45 KTFX 260610
RWRMT
MONTANA REGIONAL WEATHER ROUNDUP
NATIONAL WEATHER SERVICE GREAT FALLS MT
1200 AM MDT THU MAY 26 2016

NOTE: "FAIR" INDICATES FEW OR NO CLOUDS BELOW 12000 FEET WITH NO
SIGNIFICANT WEATHER AND/OR OBSTRUCTIONS TO VISIBILITY.

MTZ001>007-043-260700-
WEST OF THE DIVIDE

CITY           SKY/WX    TMP DP  RH WIND       PRES   REMARKS
KALISPELL      MOCLDY    51  50  96 CALM      29.98R
MISSOULA       PTCLDY    51  45  79 CALM      30.02S
BUTTE          CLOUDY    45  35  68 CALM      30.05R
MULLAN PASS    MOCLDY    43  40  89 NW6       30.08F
ANACONDA         N/A     52  37  58 W10       30.02S
DEER LODGE       N/A     45  39  81 W5        30.04R
EUREKA           N/A     55  46  71 E7        29.96
HAMILTON         N/A     50  39  66 S6        30.04R
LIBBY            N/A     52  46  82 CALM      29.99R
$$

MTZ008-052>055-260700-
SOUTHWEST MONTANA

CITY           SKY/WX    TMP DP  RH WIND       PRES   REMARKS
BOZEMAN        CLOUDY    48  43  82 NE6       29.99R
DILLON         MOCLDY    48  33  56 S3        30.02R
ENNIS          CLOUDY    48  37  66 MISG      30.08R
$$

MTZ009-010-012-014-046-048-049-054-260700-
EAST SLOPES AND CENTRAL MONTANA

CITY           SKY/WX    TMP DP  RH WIND       PRES   REMARKS
CUT BANK       CLEAR     48  40  73 CALM      29.94S
GREAT FALLS    PTCLDY    45  41  86 SW9       29.93S
MALMSTROM AFB  PTCLDY    48  44  86 SW8       29.93R
HELENA         CLEAR     50  42  74 W7        29.95S
CHOTEAU          N/A     48  46  93 CALM      29.95S
$$

MTZ011-013-016-021-045-047-050-051-260700-
NORTH CENTRAL MONTANA

CITY           SKY/WX    TMP DP  RH WIND       PRES   REMARKS
HAVRE            N/A    N/A N/A N/A MISG      29.89S
LEWISTOWN      CLOUDY    45  40  82 NE5       29.93R
N BAR RANCH      N/A     43  39  87 CALM      29.94R
CHINOOK          N/A     46  45  93 CALM      29.89S
$$

MTZ017>020-022>027-061-062-260700-
NORTHEAST MONTANA

CITY           SKY/WX    TMP DP  RH WIND       PRES   REMARKS
GLASGOW        PTCLDY    50  43  77 SW7       29.84S
JORDAN           N/A     51  44  77 NW7       29.86R
SIDNEY         CLEAR     50  45  81 W9        29.82R
WOLF POINT     PTCLDY    49  44  83 W5        29.82F
PLENTYWOOD       N/A     48  48 100 W7        29.82S
$$

MTZ028>42-056>058-260700-
SOUTHCENTRAL AND SOUTHEAST MONTANA

CITY           SKY/WX    TMP DP  RH WIND       PRES   REMARKS
BAKER          CLEAR     49  44  83 SW9       29.87R
BILLINGS       MOCLDY    50  43  77 S8        29.93F
LIVINGSTON     CLOUDY    50  40  68 NW9       29.98R
MILES CITY     CLOUDY    54  47  77 W8        29.86S
FORSYTH          N/A     52  48  87 W6        29.87S
$$

REGIONAL REPORTS...DAKOTAS

CITY           SKY/WX    TMP DP  RH WIND       PRES   REMARKS
WILLISTON      CLEAR     46  44  93 S5        29.81F
MINOT          CLOUDY    59  55  87 SW7       29.73S
DICKINSON      CLEAR     44  40  85 W6        29.80F
BEACH          MOCLDY    45  45 100 SW3       29.88R
CROSBY         CLOUDY    52  52 100 NE5       29.80S
WATFORD CITY     N/A     45  45 100 SW5       29.81S
BISMARCK       CLEAR     51  49  92 SW5       29.79F
GRAND FORKS    CLOUDY    57  55  93 SW8       29.70S
FARGO          CLOUDY    55  53  93 SW6       29.71F
BUFFALO SD       N/A     48  42  80 W6        29.81R
RAPID CITY     CLOUDY    51  46  83 W5        29.90R
$$

REGIONAL REPORTS...WYOMING/IDAHO/WASHINGTON

CITY           SKY/WX    TMP DP  RH WIND       PRES   REMARKS
GILLETTE       CLOUDY    49  41  74 S16       29.91F
SHERIDAN       CLOUDY    42  39  89 NW13      29.93R
BUFFALO WY     CLOUDY    50  38  63 CALM      29.95F
CODY           CLEAR     52  34  50 W12G18    29.97R
YELLOWSTONE LA   N/A     32  31  96 CALM      30.13R
IDAHO FALLS    CLOUDY    45  41  86 CALM      30.05S
SALMON         CLEAR     48  34  57 CALM      30.02S
BOISE          CLEAR     55  43  63 SE6       29.99S
SPOKANE        MOCLDY    61  42  49 SW13      29.99S
$$

REGIONAL REPORTS...ALBERTA

CITY           SKY/WX    TMP DP  RH WIND       PRES   REMARKS
EDMONTON       LGT RAIN  55  50  82 S3        29.90S
CALGARY        MOCLDY    52  50  93 NW7       29.95S
LETHBRIDGE     CLEAR     46  43  87 S8        29.92R FOG
MEDICINE HAT   CLEAR     50  45  81 VRB2      29.91R
WATERTON GATE    N/A     54  43  66 SW15G24     N/A
CARDSTON         N/A     50  45  81 SE2         N/A
MILK RIVER       N/A     43  41  93 SW1         N/A
$$

REGIONAL REPORTS...SASKATCHEWAN

CITY           SKY/WX    TMP DP  RH WIND       PRES   REMARKS
SWIFT CURRENT  MOCLDY    50  48  93 E5        29.88S
REGINA         LGT RAIN  52  50  93 NE8       29.84F
SASKATOON      MOCLDY    54  48  82 N6        29.89R
CYPRESS HILLS    N/A     45  39  81 N5          N/A
VAL MARIE        N/A     48  45  87 N8          N/A
ROCKGLEN         N/A     46  46 100 N6          N/A
$$




USA.gov is the U.S. government's official web portal to all federal, state and local government web resources and services.